This is the latest recevied weather packets stored in our database for station/object N0MPM-4. If no packets are shown the sender has not sent any weather packets the latest 1 day(s).
| Time | Temp. | Humidity | Pressure | Rain* | Wind** | Luminosity | Snow |
|---|---|---|---|---|---|---|---|
| 1777992282 | 10° C | 53% | 1011.8 hPa | 0 mm | 0 m/s | - | - |
| 1777991982 | 10° C | 56% | 1011.7 hPa | 0 mm | 0 m/s | - | - |
| 1777991682 | 10° C | 58% | 1011.6 hPa | 0 mm | 0 m/s | - | - |
| 1777991382 | 10° C | 57% | 1011.4 hPa | 0 mm | 0 m/s | - | - |
| 1777991082 | 10° C | 59% | 1011.3 hPa | 0 mm | 0 m/s | - | - |
| 1777990782 | 10° C | 59% | 1011.1 hPa | 0 mm | 0 m/s | - | - |
| 1777990482 | 10° C | 62% | 1011.1 hPa | 0 mm | 0 m/s | - | - |
| 1777990182 | 10° C | 60% | 1011 hPa | 0 mm | 0 m/s | - | - |
| 1777989882 | 10° C | 59% | 1010.9 hPa | 0 mm | 0 m/s | - | - |
| 1777989582 | 10° C | 60% | 1011 hPa | 0 mm | 0 m/s | - | - |
| 1777989282 | 10° C | 59% | 1010.9 hPa | 0 mm | 0 m/s | - | - |
| 1777988982 | 10° C | 61% | 1010.9 hPa | 0 mm | 0 m/s | - | - |
| 1777988682 | 10.56° C | 63% | 1010.8 hPa | 0 mm | 0 m/s | - | - |
| 1777988382 | 10.56° C | 64% | 1010.7 hPa | 0 mm | 0 m/s | - | - |
| 1777988082 | 10° C | 67% | 1010.6 hPa | 0 mm | 0 m/s | - | - |
| 1777987782 | 10° C | 68% | 1010.5 hPa | 0 mm | 0 m/s | - | - |
| 1777987482 | 10° C | 67% | 1010.5 hPa | 0 mm | 0 m/s | - | - |
| 1777987182 | 9.44° C | 70% | 1010.4 hPa | 0 mm | 0 m/s | - | - |
| 1777986882 | 9.44° C | 73% | 1010.3 hPa | 0 mm | 0 m/s | - | - |
| 1777986582 | 9.44° C | 75% | 1010.3 hPa | 0 mm | 0 m/s | - | - |
| 1777986282 | 8.89° C | 76% | 1010.1 hPa | 0 mm | 0 m/s | - | - |
| 1777985982 | 8.33° C | 75% | 1010.2 hPa | 0 mm | 0 m/s | - | - |
| 1777985682 | 8.33° C | 75% | 1010.2 hPa | 0 mm | 0 m/s | - | - |
| 1777985382 | 7.78° C | 76% | 1010.3 hPa | 0 mm | 0 m/s | - | - |
| 1777985083 | 7.78° C | 77% | 1010.5 hPa | 0 mm | 0 m/s | - | - |
* Rain latest hour (hover to see other rain measurements)
** Current wind speed in m/s (hover to see current wind gust speed)